Home   Weather   Cupertino   Past weeks

Flag for USA Past Weather in Cupertino, California, USA — Yesterday and Last 2 Weeks

66 °F

Mostly cloudy.

Feels Like: 66 °F
Forecast: 59 / 69 °F
Wind: 7 mph from Southeast

Location: Moffett Field

Current Time: Oct 27, 2016 at 12:02:38 PM

Latest Report: Oct 27, 2016 at 10:56 AM

Visibility: 10 mi

Pressure: 29.98 "Hg

Humidity: 61%

Dew Point: 52 °F

Location of CupertinoLocation

Past Weather in Cupertino — Graph


Cupertino Temperature Yesterday

Maximum temperature yesterday: 79 °F (at 2:56 PM)
Minimum temperature yesterday: 55 °F (at 7:56 AM)
Average temperature yesterday: 64 °F

High & Low Weather Summary for the Past Weeks

High81 °F (Oct 20, 2:56 PM)97% (Oct 15, 7:56 AM)30.22 "Hg (Oct 15, 7:56 AM)
Low51 °F (Oct 13, 4:56 AM)27% (Oct 19, 3:56 PM)29.77 "Hg (Oct 16, 3:56 PM)
Average63 °F68%30.01 "Hg
* Reported Oct 12 10:56 AM — Oct 27 10:56 AM, Cupertino, Weather by CustomWeather, © 2016

Note: Actual official high and low records may vary slightly from our data, if they occured in-between our weather recording intervals... More about our weather records


Cupertino Weather History for the Previous 24 Hours

Scroll right to see more
Time TempWeatherWind HumidityBarometerVisibility
10:56 AM
Thu, Oct 27
66 °FMostly cloudy.7 mph61%29.98 "Hg10 mi
9:56 AM65 °FLight rain. Cloudy.3 mph61%29.99 "Hg10 mi
8:56 AM65 °FMore clouds than sun.10 mph59%29.97 "Hg10 mi
7:56 AM61 °FLight rain. Mostly cloudy.3 mph78%29.97 "Hg10 mi
6:56 AM61 °FMostly cloudy.3 mph75%29.96 "Hg10 mi
5:56 AM61 °FOvercast.No wind75%29.97 "Hg10 mi
4:56 AM60 °FOvercast.5 mph78%29.94 "Hg10 mi
3:56 AM60 °FOvercast.3 mph78%29.96 "Hg10 mi
2:56 AM60 °FPassing clouds.3 mph80%29.98 "Hg10 mi
1:56 AM60 °FMostly cloudy.3 mph78%30.00 "Hg10 mi
12:56 AM61 °FPassing clouds.No wind81%30.00 "Hg10 mi
11:56 PM
Wed, Oct 26
61 °FPassing clouds.No wind81%30.00 "Hg10 mi
10:56 PM62 °FPassing clouds.No wind78%30.00 "Hg10 mi
9:56 PM61 °FClear.7 mph78%30.01 "Hg10 mi
8:56 PM62 °FClear.6 mph78%30.01 "Hg10 mi
7:56 PM63 °FClear.9 mph73%29.99 "Hg10 mi
6:56 PM65 °FClear.8 mph73%29.98 "Hg10 mi
5:56 PM66 °FSunny.9 mph70%29.96 "Hg10 mi
4:56 PM70 °FSunny.10 mph59%29.96 "Hg10 mi
3:56 PM73 °FSunny.12 mph51%29.96 "Hg10 mi
2:56 PM79 °FSunny.8 mph34%29.97 "Hg10 mi
1:56 PM78 °FSunny.12 mph35%29.98 "Hg10 mi
12:56 PM75 °FSunny.6 mph42%30.03 "Hg10 mi
Weather by CustomWeather, © 2016

See weather overviewHow to use our weather pages